Regional Weather Roundup
Issued by NWS Albany, NY

Home | Current Version | Previous Version | Graphics & Text | Print | Product List | Glossary Off
Versions: 1 2 3 4 5 6 7 8 9 10 11 12 13 14 15 16 17 18 19 20 21 22 23 24 25 26 27 28 29 30 31 32 33 34 35 36 37 38 39 40 41 42 43 44 45 46 47 48 49 50

000
ASUS41 KALY 081910
RWRALY

NEW YORK STATE HOURLY WEATHER ROUNDUP
NATIONAL WEATHER SERVICE ALBANY NY
200 PM EST MON FEB 08 2016

NOTE: "FAIR" INDICATES FEW OR NO CLOUDS BELOW 12,000 FEET WITH NO
SIGNIFICANT WEATHER AND/OR NO OBSTRUCTIONS TO VISIBILITY.

NYZ032-033-038>043-046>054-057>066-NYZ062>081-082000-
EAST


CITY           SKY/WX    TMP DP  RH WIND       PRES   REMARKS
ALBANY         CLOUDY    34   2  25 N7        29.79F WCI  28
GLENS FALLS    CLOUDY    32   2  27 NE9       29.80F WCI  24
POUGHKEEPSIE   CLOUDY    34  14  43 NE14      29.76F WCI  25
NEWBURGH       PTSUNNY   34  12  40 NE12      29.73F WCI  25
MONTGOMERY     CLOUDY    35  11  36 NE15      29.72F WCI  25
WHITE PLAINS   LGT SNOW  28  22  78 N15       29.71F WCI  16
ISLIP          LGT SNOW  27  22  81 N16       29.69F VSB 1   WCI  15
NEW YORK CITY  CLOUDY    33  24  69 N12       29.74F WCI  24
CENTRAL PARK   CLOUDY    33  23  66 NE12G17   29.75F WCI  24
$$

NYZ005>009-017-018-044>046-055-056-082000-
CENTRAL


CITY           SKY/WX    TMP DP  RH WIND       PRES   REMARKS
FULTON         CLOUDY    40  23  50 MISG      29.69F
SYRACUSE       CLOUDY    40  22  48 E12       29.69F WCI  33
ROME           CLOUDY    37  15  40 SE12G24   29.75F WCI  29
ELMIRA         CLOUDY    40  25  55 S7        29.65F
BINGHAMTON     CLOUDY    36  20  52 SE8       29.63F WCI  30
MONTICELLO     CLOUDY    32   9  37 E10       29.69F WCI  24
$$

NYZ026>034-041>043-082000-
NORTH


CITY           SKY/WX    TMP DP  RH WIND       PRES   REMARKS
WATERTOWN      CLOUDY    33  21  61 NE15      29.73F WCI  23
FORT DRUM      NOT AVBL
MASSENA        MOSUNNY   21   7  54 NE21G26   29.86F WCI   5
SARANAC LAKE   FLURRIES  29  18  63 NE9       29.69F WCI  20
PLATTSBURGH    CLOUDY    25   6  44 N13       29.86F WCI  14
$$

NYZ001>004-010>016-019>021-082000-
WEST


CITY           SKY/WX    TMP DP  RH WIND       PRES   REMARKS
NIAGARA FALLS  CLOUDY    46  31  55 NE13      29.58F
BUFFALO        CLOUDY    49  27  42 S13       29.58F
DUNKIRK        CLOUDY    45  27  49 SE9       29.57F
JAMESTOWN      CLOUDY    43  25  49 S9        29.54F
WELLSVILLE     PTSUNNY   41  22  46 SE10G17   29.58F
ROCHESTER      CLOUDY    42  24  49 SE14      29.64F
PENN YAN       CLOUDY    39  23  52 SE8       29.64F WCI  33
$$

             KEY
       WCI = WIND CHILL INDEX
       VSB = VISIBILITY
       HX  = HEAT INDEX
$$



USA.gov is the U.S. government's official web portal to all federal, state and local government web resources and services.